Radiation Dose at Monitoring Post of Fukushima Daini Nuclear Power Station
Date,Time,MP-1(microSv/h),MP-2(microSv/h),MP-3(microSv/h),MP-4(microSv/h),MP-5(microSv/h),MP-6(microSv/h),MP-7(microSv/h),Wind Direction,Wind Velocity(m/s),Rain
2016/11/13,00:00,0.403,0.234,0.414,0.380,0.361,0.194,0.167,south,1.9,No
2016/11/13,00:10,0.404,0.233,0.413,0.379,0.361,0.195,0.168,south-southwest,1.4,No
2016/11/13,00:20,0.405,0.234,0.414,0.378,0.361,0.195,0.166,south-southwest,1.7,No
2016/11/13,00:30,0.404,0.233,0.416,0.379,0.363,0.194,0.166,south,1.2,No
2016/11/13,00:40,0.404,0.232,0.416,0.380,0.362,0.194,0.167,south-southwest,1.5,No
2016/11/13,00:50,0.405,0.234,0.415,0.377,0.362,0.194,0.166,southwest,2.3,No
2016/11/13,01:00,0.405,0.233,0.414,0.379,0.363,0.195,0.167,southwest,2.2,No
2016/11/13,01:10,0.404,0.233,0.413,0.379,0.362,0.194,0.166,south-southwest,2.7,No
2016/11/13,01:20,0.405,0.233,0.414,0.376,0.359,0.194,0.167,south-southwest,3.4,No
2016/11/13,01:30,0.404,0.235,0.414,0.380,0.362,0.194,0.166,south-southwest,3.4,No
2016/11/13,01:40,0.403,0.234,0.413,0.380,0.361,0.195,0.167,south-southwest,3.4,No
2016/11/13,01:50,0.405,0.233,0.415,0.378,0.359,0.194,0.167,south,3.6,No
2016/11/13,02:00,0.405,0.233,0.415,0.380,0.360,0.195,0.167,south-southwest,3.9,No
2016/11/13,02:10,0.403,0.234,0.414,0.378,0.360,0.195,0.167,south-southwest,4.4,No
2016/11/13,02:20,0.403,0.234,0.414,0.376,0.360,0.195,0.167,south-southwest,4.1,No
2016/11/13,02:30,0.404,0.233,0.414,0.380,0.362,0.195,0.167,south-southwest,4.5,No
2016/11/13,02:40,0.405,0.235,0.413,0.379,0.362,0.195,0.166,south-southwest,4.3,No
2016/11/13,02:50,0.403,0.233,0.414,0.377,0.362,0.196,0.168,south-southwest,4.3,No
2016/11/13,03:00,0.406,0.234,0.416,0.379,0.361,0.194,0.167,south-southwest,3.9,No
2016/11/13,03:10,0.404,0.234,0.414,0.378,0.362,0.195,0.167,south-southwest,3.9,No
2016/11/13,03:20,0.405,0.233,0.413,0.377,0.361,0.193,0.167,south-southwest,3.6,No
2016/11/13,03:30,0.405,0.233,0.417,0.377,0.361,0.196,0.166,south,3.7,No
2016/11/13,03:40,0.405,0.232,0.413,0.379,0.362,0.194,0.167,south-southwest,4.2,No
2016/11/13,03:50,0.403,0.233,0.414,0.378,0.361,0.194,0.166,south,4.1,No
2016/11/13,04:00,0.404,0.233,0.415,0.378,0.361,0.194,0.167,south-southwest,4.1,No
2016/11/13,04:10,0.404,0.234,0.414,0.378,0.362,0.195,0.166,southwest,3.9,No
2016/11/13,04:20,0.404,0.234,0.416,0.379,0.360,0.195,0.167,south-southwest,3.0,No
2016/11/13,04:30,0.403,0.233,0.415,0.377,0.362,0.195,0.168,south-southwest,3.5,No
2016/11/13,04:40,0.405,0.234,0.415,0.380,0.362,0.195,0.167,south,5.5,No
2016/11/13,04:50,0.404,0.234,0.412,0.377,0.360,0.194,0.167,south,6.7,No
2016/11/13,05:00,0.405,0.233,0.416,0.378,0.363,0.194,0.168,south,5.7,No
2016/11/13,05:10,0.405,0.233,0.415,0.379,0.362,0.195,0.168,south-southwest,5.8,No
2016/11/13,05:20,0.404,0.234,0.415,0.378,0.361,0.195,0.167,south-southwest,5.6,No
2016/11/13,05:30,0.403,0.234,0.415,0.378,0.364,0.194,0.168,south-southwest,6.7,No
2016/11/13,05:40,0.407,0.234,0.415,0.378,0.361,0.195,0.167,south-southwest,6.6,No
2016/11/13,05:50,0.405,0.234,0.412,0.379,0.360,0.195,0.167,southwest,6.7,No
2016/11/13,06:00,0.404,0.234,0.412,0.379,0.362,0.194,0.167,south-southwest,5.6,No
2016/11/13,06:10,0.405,0.234,0.416,0.380,0.361,0.195,0.167,south-southwest,7.4,No
2016/11/13,06:20,0.403,0.234,0.414,0.379,0.361,0.194,0.167,south-southwest,7.2,No
2016/11/13,06:30,0.404,0.234,0.414,0.377,0.364,0.195,0.168,south-southwest,7.0,No
2016/11/13,06:40,0.406,0.234,0.416,0.379,0.362,0.195,0.167,south-southwest,6.4,No
2016/11/13,06:50,0.405,0.234,0.412,0.378,0.362,0.195,0.167,south-southwest,6.9,No
2016/11/13,07:00,0.405,0.235,0.415,0.377,0.362,0.195,0.167,south-southwest,6.6,No
2016/11/13,07:10,0.404,0.235,0.417,0.378,0.360,0.194,0.167,south-southwest,6.3,No
2016/11/13,07:20,0.405,0.235,0.414,0.377,0.360,0.195,0.166,south-southwest,6.0,No
2016/11/13,07:30,0.404,0.235,0.416,0.379,0.361,0.194,0.168,south-southwest,4.5,No
2016/11/13,07:40,0.406,0.235,0.414,0.378,0.361,0.194,0.167,southwest,4.8,No
2016/11/13,07:50,0.403,0.233,0.413,0.376,0.361,0.196,0.167,southwest,4.7,No
2016/11/13,08:00,0.405,0.234,0.416,0.380,0.362,0.195,0.167,south-southwest,4.3,No
2016/11/13,08:10,0.403,0.234,0.416,0.376,0.361,0.194,0.166,south-southwest,4.3,No
2016/11/13,08:20,0.403,0.235,0.416,0.380,0.362,0.195,0.166,south-southwest,5.4,No
2016/11/13,08:30,0.406,0.235,0.416,0.375,0.360,0.196,0.166,south-southwest,6.2,No
2016/11/13,08:40,0.403,0.234,0.412,0.377,0.361,0.196,0.167,south-southwest,6.4,No
2016/11/13,08:50,0.403,0.234,0.417,0.376,0.360,0.194,0.167,south-southwest,4.1,No
2016/11/13,09:00,0.404,0.233,0.413,0.379,0.360,0.195,0.165,south-southwest,2.1,No
2016/11/13,09:10,0.403,0.234,0.414,0.374,0.364,0.195,0.167,south-southwest,2.8,No
2016/11/13,09:20,0.403,0.233,0.413,0.378,0.360,0.196,0.168,south-southwest,3.1,No
2016/11/13,09:30,0.403,0.233,0.412,0.377,0.362,0.195,0.166,south,3.8,No
2016/11/13,09:40,0.403,0.232,0.415,0.375,0.359,0.195,0.168,south,5.4,No
2016/11/13,09:50,0.400,0.233,0.412,0.379,0.361,0.195,0.166,south,4.8,No
2016/11/13,10:00,0.403,0.234,0.413,0.378,0.360,0.195,0.166,south,5.3,No
2016/11/13,10:10,0.401,0.231,0.413,0.376,0.357,0.195,0.167,south,5.6,No
2016/11/13,10:20,0.401,0.234,0.414,0.378,0.362,0.197,0.166,south,6.5,No
2016/11/13,10:30,0.402,0.234,0.413,0.376,0.359,0.195,0.166,south,7.6,No
2016/11/13,10:40,0.402,0.233,0.415,0.376,0.358,0.196,0.168,south-southwest,8.3,No
2016/11/13,10:50,0.400,0.235,0.413,0.381,0.362,0.194,0.167,south,8.6,No
2016/11/13,11:00,0.404,0.234,0.415,0.377,0.359,0.196,0.168,south,7.3,No
2016/11/13,11:10,0.403,0.232,0.413,0.377,0.358,0.194,0.167,south,9.1,No
2016/11/13,11:20,0.401,0.235,0.412,0.380,0.363,0.196,0.167,south,8.4,No
2016/11/13,11:30,0.406,0.232,0.414,0.379,0.360,0.197,0.168,south,8.0,No
2016/11/13,11:40,0.403,0.233,0.416,0.378,0.360,0.196,0.167,south,8.8,No
2016/11/13,11:50,0.397,0.234,0.412,0.380,0.364,0.197,0.167,south,8.9,No
2016/11/13,12:00,0.406,0.233,0.415,0.378,0.360,0.196,0.167,south,9.3,No
2016/11/13,12:10,0.405,0.235,0.412,0.375,0.359,0.197,0.167,south,8.3,No
2016/11/13,12:20,0.401,0.233,0.411,0.379,0.364,0.196,0.166,south,8.9,No
2016/11/13,12:30,0.403,0.232,0.416,0.378,0.361,0.194,0.169,south-southwest,8.2,No
2016/11/13,12:40,0.406,0.234,0.413,0.377,0.359,0.196,0.167,south-southwest,7.3,No
2016/11/13,12:50,0.403,0.233,0.408,0.374,0.362,0.195,0.167,south-southwest,6.7,No
2016/11/13,13:00,0.406,0.232,0.414,0.381,0.361,0.196,0.167,south-southwest,6.7,No
2016/11/13,13:10,0.402,0.234,0.414,0.380,0.358,0.195,0.167,south-southwest,5.6,No
2016/11/13,13:20,0.405,0.234,0.410,0.377,0.362,0.195,0.167,south,6.2,No
2016/11/13,13:30,0.404,0.232,0.408,0.374,0.362,0.195,0.169,south,8.1,No
2016/11/13,13:40,0.402,0.234,0.413,0.377,0.359,0.194,0.168,south,7.0,No
2016/11/13,13:50,0.405,0.234,0.414,0.380,0.360,0.195,0.168,south,9.2,No
2016/11/13,14:00,0.403,0.233,0.413,0.377,0.363,0.195,0.168,south,9.2,No
2016/11/13,14:10,0.407,0.234,0.417,0.379,0.360,0.195,0.167,south,7.1,No
2016/11/13,14:20,0.403,0.235,0.415,0.380,0.365,0.196,0.169,south,8.2,No
2016/11/13,14:30,0.407,0.233,0.416,0.378,0.362,0.194,0.169,south,7.8,No
2016/11/13,14:40,0.404,0.234,0.415,0.381,0.365,0.194,0.169,south,7.7,No
2016/11/13,14:50,0.405,0.233,0.416,0.379,0.361,0.196,0.168,south,7.1,No
2016/11/13,15:00,0.405,0.236,0.414,0.380,0.365,0.195,0.168,south,5.9,No
2016/11/13,15:10,0.407,0.234,0.417,0.379,0.360,0.195,0.167,south,6.1,No
2016/11/13,15:20,0.404,0.234,0.413,0.380,0.364,0.195,0.168,south,4.8,No
2016/11/13,15:30,0.406,0.234,0.417,0.379,0.360,0.194,0.168,south,5.0,No
2016/11/13,15:40,0.403,0.233,0.412,0.381,0.364,0.195,0.168,south-southwest,4.3,No
2016/11/13,15:50,0.405,0.235,0.416,0.380,0.361,0.196,0.167,south-southwest,2.2,No
2016/11/13,16:00,0.404,0.235,0.412,0.382,0.363,0.195,0.169,west-southwest,0.7,No
2016/11/13,16:10,0.408,0.234,0.415,0.381,0.361,0.196,0.168,southwest,1.2,No
2016/11/13,16:20,0.404,0.235,0.415,0.380,0.363,0.195,0.168,southwest,1.5,No
2016/11/13,16:30,0.406,0.234,0.416,0.381,0.360,0.196,0.167,southwest,1.9,No
2016/11/13,16:40,0.404,0.235,0.416,0.381,0.364,0.195,0.167,southwest,1.9,No
2016/11/13,16:50,0.404,0.235,0.418,0.381,0.362,0.197,0.168,south-southwest,3.0,No
2016/11/13,17:00,0.406,0.235,0.414,0.381,0.364,0.196,0.167,southwest,3.6,No
2016/11/13,17:10,0.405,0.235,0.415,0.379,0.362,0.196,0.168,southwest,3.3,No
2016/11/13,17:20,0.405,0.235,0.417,0.381,0.362,0.196,0.169,southwest,3.6,No
2016/11/13,17:30,0.406,0.234,0.414,0.380,0.364,0.198,0.169,southwest,4.8,No
2016/11/13,17:40,0.406,0.234,0.417,0.382,0.362,0.196,0.169,southwest,4.7,No
2016/11/13,17:50,0.407,0.234,0.414,0.381,0.363,0.196,0.169,south-southwest,4.5,No
2016/11/13,18:00,0.405,0.235,0.419,0.381,0.361,0.197,0.169,west-southwest,3.5,No
2016/11/13,18:10,0.409,0.234,0.413,0.380,0.365,0.196,0.170,west-southwest,2.6,No
2016/11/13,18:20,0.405,0.234,0.417,0.379,0.363,0.196,0.168,west,1.7,No
2016/11/13,18:30,0.405,0.235,0.415,0.381,0.362,0.196,0.169,northwest,1.2,No
2016/11/13,18:40,0.406,0.234,0.413,0.380,0.361,0.197,0.169,north,1.5,No
2016/11/13,18:50,0.404,0.234,0.418,0.380,0.363,0.196,0.169,north,2.1,No
2016/11/13,19:00,0.408,0.234,0.415,0.380,0.363,0.196,0.168,north-northeast,1.1,No
2016/11/13,19:10,0.406,0.235,0.416,0.381,0.364,0.197,0.170,north-northeast,1.1,No
2016/11/13,19:20,0.405,0.234,0.417,0.381,0.361,0.197,0.169,north-northeast,0.6,No
2016/11/13,19:30,0.409,0.234,0.415,0.380,0.364,0.197,0.168,north-northeast,1.1,No
2016/11/13,19:40,0.405,0.233,0.418,0.380,0.361,0.195,0.170,northeast,1.7,No
2016/11/13,19:50,0.405,0.235,0.414,0.382,0.364,0.196,0.170,east-northeast,1.3,No
2016/11/13,20:00,0.407,0.235,0.415,0.379,0.363,0.196,0.170,east,0.9,No
2016/11/13,20:10,0.406,0.234,0.417,0.382,0.361,0.197,0.169,southeast,0.5,No
2016/11/13,20:20,0.406,0.235,0.412,0.381,0.364,0.197,0.169,south-southeast,1.1,No
2016/11/13,20:30,0.407,0.234,0.418,0.379,0.361,0.196,0.168,south-southwest,1.7,No
2016/11/13,20:40,0.406,0.235,0.417,0.382,0.360,0.195,0.168,west,2.2,No
2016/11/13,20:50,0.406,0.233,0.415,0.379,0.364,0.195,0.168,west,4.3,No
2016/11/13,21:00,0.406,0.236,0.417,0.378,0.361,0.197,0.169,west,4.8,No
2016/11/13,21:10,0.404,0.234,0.414,0.382,0.362,0.196,0.169,west,4.0,No
2016/11/13,21:20,0.406,0.234,0.417,0.380,0.362,0.196,0.168,west,3.5,No
2016/11/13,21:30,0.406,0.234,0.415,0.381,0.361,0.196,0.168,west-southwest,3.7,No
2016/11/13,21:40,0.405,0.234,0.415,0.379,0.364,0.196,0.170,west-southwest,4.7,No
2016/11/13,21:50,0.406,0.236,0.418,0.379,0.362,0.196,0.168,west,4.6,No
2016/11/13,22:00,0.406,0.235,0.414,0.382,0.362,0.197,0.169,west,4.2,No
2016/11/13,22:10,0.404,0.235,0.416,0.378,0.361,0.195,0.169,west,3.3,No
2016/11/13,22:20,0.406,0.234,0.416,0.382,0.361,0.197,0.168,west,2.9,No
2016/11/13,22:30,0.406,0.234,0.414,0.380,0.362,0.196,0.168,west,2.9,No
2016/11/13,22:40,0.406,0.234,0.416,0.381,0.361,0.196,0.168,west,4.0,No
2016/11/13,22:50,0.407,0.234,0.415,0.381,0.361,0.196,0.169,west,4.2,No
2016/11/13,23:00,0.404,0.234,0.415,0.380,0.363,0.195,0.168,west,2.5,No
2016/11/13,23:10,0.406,0.235,0.415,0.381,0.360,0.196,0.167,west,2.7,No
2016/11/13,23:20,0.407,0.234,0.415,0.381,0.363,0.196,0.168,west-northwest,2.0,No
2016/11/13,23:30,0.406,0.233,0.415,0.379,0.362,0.196,0.168,west,1.1,No
2016/11/13,23:40,0.404,0.235,0.416,0.380,0.362,0.197,0.168,northwest,1.1,No
2016/11/13,23:50,0.407,0.235,0.414,0.381,0.364,0.196,0.168,north,1.9,No
